Walla Walla, WA
on Thursday, January 3, 2013

Thursday
Previous Day Next Day
Daily Summary
 ActualAverage (KPDT)Record (KPDT)
Temperature
Mean Temperature °F 33°F  
Max Temperature 28°F 40°F 60°F (1989)
Min Temperature 19°F 27°F -9°F (1910)
Degree Days
Heating Degree Days 42 32  
Month to date heating degree days 96  
Since 1 July heating degree days 2333  
Cooling Degree Days 0 0  
Month to date cooling degree days 0  
Year to date cooling degree days 0  
Moisture
Dew Point 20°F   
Average Humidity 87    
Maximum Humidity 93    
Minimum Humidity 72    
Precipitation
Precipitation 0.00 in 0.05 in 0.66 in (1895)
Month to date precipitation 0.15  
Year to date precipitation 0.15  
Snow
Snow 0.00 in 0.20 in 11.10 in (1950)
Month to date snowfall 0.5  
Year to date snowfall 0.5  
Since 1 July snowfall 8.0  
Snow Depth in   
Wind
Wind Speed 3 mph   
Max Wind Speed 8 mph   
Max Gust Speed mph   
Visibility 8 miles   
Events     

Key: T is trace of precipitation, MM is missing value
Source: NWS Daily Summary
Time(PST)TemperatureDew PointHumidity Pressure Visibility Wind DirectionWind SpeedGust SpeedPrecipitationEvents Conditions
12:08 AM 24.8°F 19.4°F 80% 30.47 in 10.0 miles SSE 4.6 mph - N/A   Scattered Clouds
12:53 AM 24.1°F 19.0°F 81% 30.51 in 10.0 miles SE 3.5 mph - N/A   Clear
1:53 AM 21.0°F 17.1°F 85% 30.50 in 10.0 miles Calm Calm - N/A   Clear
2:53 AM 19.9°F 16.0°F 85% 30.50 in 10.0 miles East 3.5 mph - N/A   Clear
3:16 AM 19.4°F 15.8°F 86% 30.44 in 10.0 miles ESE 3.5 mph - N/A   Partly Cloudy
3:53 AM 19.9°F 16.0°F 85% 30.49 in 10.0 miles ESE 3.5 mph - N/A   Scattered Clouds
4:03 AM 21.2°F 15.8°F 80% 30.44 in 10.0 miles ESE 3.5 mph - N/A   Mostly Cloudy
4:32 AM 21.2°F 15.8°F 80% 30.44 in 10.0 miles Calm Calm - N/A   Scattered Clouds
4:53 AM 19.9°F 15.1°F 81% 30.49 in 10.0 miles Calm Calm - N/A   Partly Cloudy
5:53 AM 19.9°F 15.1°F 81% 30.48 in 10.0 miles ESE 4.6 mph - N/A   Clear
6:26 AM 19.4°F 15.8°F 86% 30.42 in 10.0 miles ESE 3.5 mph - N/A   Scattered Clouds
6:53 AM 19.0°F 15.1°F 85% 30.48 in 10.0 miles Calm Calm - N/A   Overcast
7:53 AM 19.0°F 15.1°F 85% 30.47 in 10.0 miles East 3.5 mph - N/A   Mostly Cloudy
8:15 AM 19.4°F 15.8°F 86% 30.40 in 10.0 miles Calm Calm - N/A   Scattered Clouds
8:53 AM 21.9°F 17.1°F 82% 30.46 in 10.0 miles East 4.6 mph - N/A   Clear
9:53 AM 26.1°F 21.0°F 81% 30.47 in 9.0 miles Calm Calm - N/A   Clear
10:53 AM 28.0°F 19.9°F 72% 30.45 in 10.0 miles Calm Calm - N/A   Clear
11:53 AM 27.0°F 23.0°F 85% 30.43 in 9.0 miles West 5.8 mph - N/A   Clear
12:04 PM 26.6°F 24.8°F 93% 30.38 in 7.0 miles West 5.8 mph - N/A   Scattered Clouds
12:16 PM 26.6°F 23.0°F 86% 30.38 in 5.0 miles West 5.8 mph - N/A   Mostly Cloudy
12:53 PM 26.1°F 23.0°F 88% 30.43 in 5.0 miles WSW 5.8 mph - N/A   Overcast
1:10 PM 26.6°F 24.8°F 93% 30.36 in 4.0 miles West 6.9 mph - N/A   Overcast
1:53 PM 26.1°F 23.0°F 88% 30.42 in 5.0 miles WSW 8.1 mph - N/A   Overcast
2:21 PM 24.8°F 23.0°F 93% 30.36 in 4.0 miles West 5.8 mph - N/A   Overcast
2:28 PM 24.8°F 23.0°F 93% 30.36 in 4.0 miles West 3.5 mph - N/A   Overcast
2:53 PM 25.0°F 23.0°F 92% 30.40 in 5.0 miles Calm Calm - N/A   Overcast
3:05 PM 26.6°F 23.0°F 86% 30.34 in 5.0 miles Calm Calm - N/A   Overcast
3:53 PM 26.1°F 23.0°F 88% 30.40 in 8.0 miles Calm Calm - N/A   Overcast
4:43 PM 24.8°F 23.0°F 93% 30.38 in 6.0 miles West 5.8 mph - N/A   Overcast
4:53 PM 25.0°F 23.0°F 92% 30.43 in 6.0 miles West 4.6 mph - N/A   Overcast
5:53 PM 25.0°F 23.0°F 92% 30.43 in 5.0 miles Calm Calm - N/A   Overcast
6:09 PM 24.8°F 23.0°F 93% 30.38 in 5.0 miles WSW 4.6 mph - N/A   Overcast
6:46 PM 24.8°F 23.0°F 93% 30.37 in 6.0 miles Calm Calm - N/A   Overcast
6:53 PM 25.0°F 23.0°F 92% 30.43 in 5.0 miles Calm Calm - N/A   Overcast
7:32 PM 26.6°F 23.0°F 86% 30.37 in 5.0 miles Calm Calm - N/A   Overcast
7:53 PM 26.1°F 24.1°F 92% 30.42 in 5.0 miles Calm Calm - N/A   Overcast
8:11 PM 26.6°F 23.0°F 86% 30.36 in 6.0 miles Calm Calm - N/A   Overcast
8:53 PM 25.0°F 23.0°F 92% 30.42 in 6.0 miles WNW 3.5 mph - N/A   Overcast
9:53 PM 26.1°F 23.0°F 88% 30.44 in 6.0 miles Calm Calm - N/A   Overcast
10:53 PM 27.0°F 21.9°F 81% 30.43 in 9.0 miles NNE 3.5 mph - N/A   Overcast
11:53 PM 27.0°F 21.9°F 81% 30.43 in 9.0 miles Calm Calm - N/A   Overcast
Moon Phase
Jan. 03 Jan. 04 Jan. 11 Jan. 18 Jan. 26
Sunrise:07:35 AM (PST) Moon Rise:11:25 PM (PST)1/3
Sunset:04:20 PM (PST) Moon Set:10:27 AM (PST)1/3

Copyright © 2014 The Weather Underground, Inc.